Probability
0 1 2 3 4 4 4 4 5 5 4 3 3 3 2 1 0 0 0 0 0 0 0 0 0 0 0 0 0 0 0 0 0 0 0 0 0 0 0 0 0 0 0
0 1 2 3 4 5 4 4 5 5 4 3 3 3 3 2 1 0 0 0 0 0 0 0 0 0 0 0 0 0 0 0 0 0 0 0 0 0 0 0 0 0 0
0 0 2 3 5 6 5 4 4 5 4 4 4 4 4 3 2 1 0 0 0 0 0 0 0 0 0 0 0 0 0 0 0 0 0 0 0 0 0 0 0 0 0
0 1 2 3 6 7 7 5 4 4 4 4 5 5 5 4 3 1 0 0 0 0 0 0 0 0 0 0 0 0 0 0 0 0 0 0 0 0 0 0 0 0 0
2 2 2 3 5 8 10 8 5 4 4 5 4 4 5 5 3 2 1 0 0 0 0 0 0 0 0 0 0 0 0 0 0 0 0 0 0 0 0 0 0 0 0
4 4 3 3 5 8 10 9 6 4 4 4 3 3 4 4 3 3 1 0 0 0 0 0 0 0 0 0 0 0 0 0 0 0 0 0 0 0 0 0 0 0 0
5 5 4 4 5 7 9 9 8 6 4 4 4 4 4 3 3 3 2 1 1 0 0 0 0 0 0 0 0 0 0 0 0 0 0 0 0 0 0 0 0 0 0
5 6 6 5 5 6 8 8 8 7 5 4 5 5 5 4 3 3 3 3 2 1 0 0 0 0 0 0 0 0 0 0 0 0 0 0 0 0 0 0 0 0 0
5 6 6 6 5 5 6 6 7 6 4 3 4 5 4 3 3 3 3 3 3 2 1 0 0 0 0 0 0 0 0 0 0 0 0 0 0 0 0 0 0 0 0
5 6 6 6 7 7 6 5 4 3 2 3 3 4 3 3 3 3 3 3 3 3 1 0 0 0 0 0 0 0 0 0 0 0 0 0 0 0 0 0 0 0 0
5 6 6 6 8 8 6 4 2 1 1 1 2 3 3 3 3 3 3 3 3 3 2 0 0 0 0 0 0 0 0 0 0 0 0 0 0 0 0 0 0 0 0
5 6 5 4 5 6 5 4 3 2 2 1 1 2 3 3 3 3 3 3 3 2 1 0 0 0 0 0 0 0 0 0 0 0 0 0 0 0 0 0 0 0 0
4 5 4 2 2 3 3 3 3 3 3 2 1 1 2 3 3 3 3 3 3 1 0 0 0 0 0 0 0 0 0 0 0 0 0 0 0 0 0 0 0 0 0
3 4 3 2 2 3 3 3 3 3 3 2 1 0 1 1 3 3 3 3 2 1 0 0 0 0 0 0 0 0 0 0 0 0 0 0 0 0 0 0 0 0 0
1 2 2 2 2 3 3 3 3 3 3 2 2 1 0 1 2 3 3 3 2 1 0 0 0 0 0 0 0 0 0 0 0 0 0 0 0 0 0 0 0 0 0
0 0 1 2 1 2 3 3 3 3 3 3 2 1 0 0 1 1 2 3 3 1 1 1 0 0 0 0 0 0 0 0 0 0 0 0 0 0 0 0 0 0 0
0 0 1 2 1 1 1 2 3 3 3 3 3 1 0 0 0 0 1 2 3 2 2 2 1 0 0 0 0 0 0 0 0 0 0 0 0 0 0 0 0 0 0
0 0 1 2 2 1 0 1 1 2 2 3 3 2 1 0 0 0 0 1 3 3 2 2 1 0 0 0 0 0 0 0 0 0 0 0 0 0 0 0 0 0 0
0 0 1 2 2 1 0 0 0 0 1 2 3 2 1 0 0 0 0 1 2 2 1 1 1 0 0 0 0 0 0 0 0 0 0 0 0 0 0 0 0 0 0
0 0 1 2 2 1 0 0 0 0 0 1 1 2 2 1 0 0 0 0 1 1 0 0 0 0 0 0 0 0 0 0 0 0 0 0 0 0 0 0 0 0 0
0 0 0 1 2 2 0 0 0 0 0 0 0 1 2 2 1 0 0 0 0 0 0 0 0 0 0 0 0 0 0 0 0 0 0 0 0 0 0 0 0 0 0
0 0 0 1 2 1 0 0 0 0 0 0 0 1 2 2 2 1 0 0 0 0 0 0 0 0 0 0 0 0 0 0 0 0 0 0 0 0 0 0 0 0 0
0 0 0 1 2 1 0 0 0 0 0 0 0 0 1 1 2 1 1 0 0 0 0 0 0 0 0 0 0 0 0 0 0 0 0 0 0 0 0 0 0 0 0
0 0 1 2 3 2 0 0 0 0 0 0 0 0 0 1 2 3 2 1 0 0 0 0 0 0 0 0 0 0 0 0 0 0 0 0 0 0 0 0 0 0 0
0 0 1 2 3 1 0 0 0 0 0 0 0 0 0 1 2 3 3 2 1 0 0 0 0 0 0 0 0 0 0 0 0 0 0 0 0 0 0 0 0 0 0
0 0 1 2 2 1 0 0 0 0 0 0 0 0 0 0 1 3 3 2 1 0 0 0 0 0 0 0 0 0 0 0 0 0 0 0 0 0 0 0 0 0 0
Wind_Speed
1 1 2 3 7 8 9 9 9 9 9 9 9 10 10 10 10 10 9 9 9 10 10 10 11 11 11 11 12 12 12 12 12 12 12 13 13 13 13 13 11 8 13
1 1 1 3 6 8 8 9 9 9 9 9 9 9 9 10 9 9 9 9 9 10 10 10 10 11 11 11 12 12 12 12 12 12 12 10 11 12 12 12 11 8 12
1 1 1 3 6 8 8 9 8 8 8 8 8 9 9 9 9 9 9 9 9 10 10 10 10 11 11 11 11 12 12 12 12 12 11 6 6 11 12 11 11 11 12
2 1 1 3 6 7 8 8 8 8 8 8 8 8 8 8 8 8 8 9 9 9 10 10 10 11 10 11 11 11 11 12 12 11 6 5 4 9 11 11 11 11 11
3 2 2 3 5 7 7 7 8 8 7 7 7 7 7 8 8 8 8 9 9 9 9 9 10 10 10 10 10 10 11 11 11 8 5 4 4 7 10 10 11 10 10
3 2 2 4 5 6 7 7 7 7 7 6 7 6 6 7 7 8 8 8 8 8 9 9 9 10 10 10 10 10 10 11 9 5 5 4 3 7 9 10 10 10 10
3 3 2 4 5 6 6 7 6 6 6 6 6 6 6 6 7 7 7 7 7 7 8 9 9 9 9 9 10 9 9 9 6 5 4 3 3 8 9 9 9 9 9
4 3 3 4 5 5 5 6 6 6 6 5 5 6 6 6 6 6 6 7 7 7 8 8 9 9 8 9 9 9 9 8 6 4 3 3 4 7 8 8 8 8 8
4 4 3 3 3 4 5 5 6 6 5 5 6 6 6 7 7 6 6 6 6 7 7 8 8 8 9 9 9 9 8 8 5 3 3 2 4 6 7 7 7 7 7
4 4 3 3 4 3 3 5 6 5 5 5 6 6 6 6 7 7 6 6 6 6 7 7 8 8 8 8 8 8 8 7 4 3 2 2 4 5 7 7 7 7 7
3 3 3 3 3 3 3 4 4 5 5 5 4 6 6 3 3 4 5 6 6 6 6 7 7 8 7 7 7 7 6 3 3 2 2 4 5 5 6 6 6 6 6
1 1 2 2 2 2 2 2 2 3 3 3 3 3 3 3 2 3 5 6 6 6 6 6 7 7 6 3 4 5 2 3 3 2 2 5 5 5 5 6 6 6 6
2 1 1 1 2 2 2 2 2 2 2 3 3 3 2 2 2 2 2 3 3 4 3 4 4 3 2 2 2 2 2 2 2 2 3 5 5 5 5 5 5 5 5
2 2 1 1 1 2 2 2 2 1 1 2 2 3 2 2 2 2 1 2 2 2 2 2 1 2 2 2 3 3 2 2 1 1 2 5 5 4 4 5 5 5 5
2 2 1 2 2 2 2 1 2 1 1 1 1 1 2 1 1 1 1 2 2 2 1 1 1 2 2 2 2 2 2 2 2 2 1 4 4 4 4 4 4 4 4
3 2 2 2 2 2 2 2 2 1 1 1 1 1 1 1 1 1 1 1 1 1 1 1 1 1 1 1 2 2 1 1 1 1 1 2 4 4 4 3 3 3 3
3 2 2 2 2 2 2 2 2 1 1 1 1 1 1 1 1 1 1 1 1 1 1 1 2 2 2 2 2 2 1 1 1 1 1 1 2 4 4 4 3 3 3
3 3 2 2 2 2 2 2 2 1 1 1 1 1 1 1 2 1 0 1 1 1 1 1 1 2 1 1 1 1 1 1 1 1 2 2 2 2 3 5 5 4 4
3 3 3 3 3 2 2 2 2 2 1 1 1 1 1 1 1 2 1 0 1 1 1 1 1 1 1 1 0 1 1 1 1 1 2 2 2 2 2 4 6 6 6
2 2 3 3 2 2 2 1 1 1 1 1 1 1 1 1 2 2 1 0 1 1 1 1 1 1 1 0 0 1 1 1 1 1 1 1 2 2 2 2 3 4 7
2 2 3 3 2 2 2 2 1 1 1 0 0 1 1 1 2 2 1 1 1 1 1 1 1 2 1 1 1 1 1 1 1 1 1 1 1 2 2 2 2 2 3
2 2 2 3 3 3 2 2 1 1 0 0 0 0 0 1 1 2 2 1 2 1 2 2 2 2 1 1 2 1 1 1 1 1 1 0 1 1 1 2 2 2 2
2 3 2 2 2 3 3 2 2 2 1 1 1 1 1 1 1 1 1 2 2 2 2 2 3 3 3 1 1 2 2 2 2 1 1 0 1 1 1 2 2 2 2
3 2 2 2 2 2 3 3 3 2 2 2 1 1 1 0 1 1 1 2 2 2 2 2 3 3 4 3 1 0 1 1 1 2 2 1 1 1 1 2 2 2 2
2 2 2 2 2 2 2 3 3 2 1 0 0 0 1 1 1 1 1 2 2 2 2 3 2 3 3 3 3 1 1 0 1 1 3 3 2 1 1 2 2 2 2
1 1 1 2 1 1 2 2 3 3 2 1 1 1 1 1 1 1 1 2 2 2 2 3 3 3 3 3 3 2 2 2 2 2 2 3 4 3 2 1 2 2 2
Wind_Direction
261 273 227 147 128 115 107 100 95 93 91 90 92 93 96 95 92 90 88 87 84 83 80 78 79 78 77 77 74 74 75 73 71 69 69 69 69 71 71 67 65 61 68
193 225 221 139 129 118 112 106 100 96 93 91 93 94 95 95 93 89 86 85 83 82 80 79 79 78 78 77 75 74 73 72 68 63 60 59 64 70 72 69 67 69 68
111 150 155 127 125 119 115 111 106 101 96 92 89 92 93 94 91 88 85 82 80 82 83 83 82 82 80 78 77 76 75 73 67 60 52 43 56 69 73 73 71 70 68
110 115 117 111 118 118 117 114 111 105 101 97 92 90 93 94 91 89 85 82 80 80 81 83 86 85 81 79 79 78 77 75 66 57 48 37 45 67 73 73 72 70 68
90 78 98 103 113 115 116 116 115 110 103 98 95 90 91 91 90 88 85 82 78 76 78 83 86 86 83 80 79 80 78 75 65 55 45 37 39 68 72 71 71 70 70
88 75 99 103 116 119 117 114 114 113 108 101 95 90 88 90 87 85 83 81 78 77 76 79 85 86 85 83 80 80 78 75 65 56 46 34 35 71 73 69 70 69 68
94 72 90 95 111 120 122 118 113 110 108 104 97 89 87 91 91 84 83 82 81 80 78 79 82 86 86 85 81 79 76 74 68 57 44 32 42 67 72 70 69 67 65
94 79 72 78 85 104 116 115 112 105 96 92 92 88 85 89 93 88 84 84 84 82 79 80 80 81 84 85 84 79 73 70 69 57 42 34 48 69 72 69 68 66 64
74 73 64 58 63 76 85 88 95 95 91 86 79 75 74 77 81 80 78 82 82 81 82 80 79 78 78 79 80 77 71 65 65 51 40 32 52 71 75 72 69 66 65
68 66 63 59 56 58 66 75 77 81 81 79 76 69 67 68 69 68 65 71 76 79 81 80 79 78 77 78 77 73 68 65 58 47 33 30 54 73 76 74 71 68 67
67 58 64 69 65 59 61 65 69 69 67 68 64 68 66 56 59 60 53 57 63 73 80 80 77 76 73 72 74 72 67 63 60 44 29 33 58 71 71 71 70 67 64
138 84 66 74 81 74 67 66 61 59 57 56 56 60 61 51 52 64 56 55 54 59 70 77 75 72 66 65 66 69 67 65 61 42 25 32 51 65 72 69 69 67 62
175 140 89 88 92 94 88 83 60 51 53 53 52 55 61 59 49 51 53 48 44 51 53 61 67 62 62 68 73 68 63 66 54 35 20 27 41 57 65 67 67 68 63
167 182 151 120 118 115 106 106 91 69 65 66 55 57 66 66 56 46 47 46 45 46 53 55 63 65 69 73 85 80 65 60 46 33 18 23 28 44 60 60 61 62 58
187 197 187 152 150 136 120 120 109 104 98 97 86 71 74 78 75 59 50 46 46 43 57 64 57 64 70 67 73 85 74 53 39 34 14 15 19 34 55 57 54 51 47
202 205 198 167 156 147 143 145 140 136 128 109 98 81 100 99 85 74 77 57 43 45 41 62 70 72 65 70 56 53 61 53 43 29 23 11 19 27 38 46 45 41 35
201 193 193 175 151 157 158 154 142 147 139 126 128 122 110 109 120 96 105 102 47 40 57 60 60 70 64 58 48 35 37 36 40 22 15 14 8 14 23 28 30 29 25
190 187 192 166 157 168 166 153 144 143 140 140 134 138 134 126 127 127 105 127 109 82 62 82 88 89 75 59 43 18 19 28 34 24 25 20 18 8 9 14 8 7 6
192 184 181 170 170 173 162 145 137 138 142 150 134 132 139 136 140 146 128 158 128 112 83 77 96 110 111 70 35 21 7 13 16 35 33 27 21 15 7 2 4 359 353
184 175 173 171 168 160 141 113 114 120 144 146 147 141 139 151 158 147 125 157 126 118 108 84 112 100 120 98 56 23 353 351 35 36 17 18 16 14 11 8 360 351 351
155 164 172 172 169 155 161 167 169 193 199 153 179 156 142 143 156 147 131 152 141 147 159 136 133 128 99 86 82 26 359 37 68 43 31 30 10 355 3 359 352 346 338
178 181 177 184 179 177 175 175 167 156 200 204 227 20 133 140 150 162 148 161 167 157 150 140 143 154 130 101 116 130 353 342 3 14 4 2 334 341 349 348 345 340 333
207 201 194 198 185 177 156 128 99 80 54 32 7 333 323 173 167 158 167 165 175 169 177 173 172 163 168 151 118 139 154 235 306 305 283 317 338 338 319 326 330 324 326
225 209 194 184 166 164 156 157 158 171 198 226 222 238 282 212 194 193 179 175 185 186 183 185 177 174 167 174 161 96 155 154 173 295 289 283 289 289 288 302 308 306 311
210 193 187 170 155 151 158 166 172 178 204 202 173 199 257 255 216 205 196 195 191 198 195 185 174 178 176 180 171 156 142 111 159 204 271 289 296 267 266 278 282 290 307
163 158 153 156 151 148 157 167 177 180 182 178 221 240 256 261 253 239 209 205 210 200 208 195 183 181 183 182 178 171 171 177 189 197 240 268 284 288 282 275 273 277 286